Regional Weather Roundup
Issued by NWS

Home | Current Version | Previous Version | Graphics & Text | Print | Product List | Glossary On
Versions: 1 2 3 4 5 6 7 8 9 10 11 12 13 14 15 16 17 18 19 20 21 22 23 24 25 26 27 28 29 30 31 32 33 34 35 36 37 38 39 40 41 42 43 44 45 46 47 48 49 50
000
ASUS43 KDTX 250910
RWRMI
MICHIGAN HOURLY REGIONAL WEATHER ROUNDUP
NATIONAL WEATHER SERVICE DETROIT/PONTIAC MI
500 AM EDT MON JUL 25 2016

NOTE: "FAIR" INDICATES FEW OR NO CLOUDS BELOW 12,000 FEET WITH NO
SIGNIFICANT WEATHER AND/OR OBSTRUCTION TO VISIBILITY.

MIZ047>049-052>055-059>063-066>070-074>076-081>083-251000-
SOUTHEAST LOWER MICHIGAN

CITY           SKY/WX    TMP DP  RH WIND       PRES   REMARKS
ADRIAN         CLOUDY    74  72  93 W6        29.93R
ALMA           CLOUDY    76  74  95 W8        29.88S
ANN ARBOR      CLOUDY    73  72  96 SW5       29.91R
BAD AXE        PTCLDY    73  70  91 W5        29.84S
CARO           CLOUDY    77  73  86 W5        29.85S
DETROIT CITY   LGT RAIN  79  77  94 SW13G21   29.88R
DETROIT        TSTM      76  72  87 SW13      29.90S FOG
FLINT          MOCLDY    83  74  74 W12       29.89R
GROSSE ILE     LGT RAIN  76  72  88 SW8       29.89F
HOWELL         LGT RAIN  77  68  73 W7        29.89S

CITY           SKY/WX    TMP DP  RH WIND       PRES   REMARKS
JACKSON        CLOUDY    75  70  84 W9        29.92S
LAMBERTVILLE   CLOUDY    77  74  92 CALM      29.91F
LANSING        MOCLDY    78  68  71 W9        29.90R
LAPEER         FAIR      79  74  83 W9        29.88R
MASON          CLOUDY    75  67  76 W7        29.91S
MONROE         LGT RAIN  75  74  96 CALM      29.89F
MT. CLEMENS    CLOUDY    81  76  84 SW13      29.85R
PONTIAC        CLOUDY    80  74  81 W13       29.88S
PORT HOPE        N/A     75  73  93 VRB6      29.80S
PORT HURON     CLOUDY    77  73  88 SW5       29.86R
TRI CITIES     CLOUDY    75  74  96 W7        29.86S FOG
MIDLAND        FAIR      75  73  94 W8        29.85S
TROY           CLOUDY    80  74  83 SW8       29.89F
SAGINAW HB     CLOUDY    77  72  83 W7        29.84F
$$
MIZ043>046-050>051-056>058-064>065-071>073-077>080-251000-
SOUTHWEST LOWER MICHIGAN

CITY           SKY/WX    TMP DP  RH WIND       PRES   REMARKS
BATTLE CREEK   CLOUDY    73  68  84 W8        29.93R
BENTON HARBOR  CLOUDY    76  66  71 W16       29.93S
BIG RAPIDS     CLOUDY    72  70  95 W5        29.89S
COLDWATER      CLOUDY    72  70  93 W6        29.95R
FREMONT        FAIR      72  72 100 W7        29.89F
HOLLAND        CLOUDY    74  70  87 W14       29.92S
GRAND RAPIDS   CLOUDY    75  69  81 W10       29.91S
IONIA          FAIR      74  67  79 W9        29.90R
KALAMAZOO      CLOUDY    76  66  71 W8        29.92R
LUDINGTON      CLOUDY    71  67  88 NW7       29.88F
MARSHALL       CLOUDY    74  70  87 SW6       29.94R
MOUNT PLEASANT CLOUDY    75  70  84 W7        29.86S
MUSKEGON       MOCLDY    74  69  85 NW6       29.91S
SOUTH HAVEN    CLOUDY    75  66  73 W10G20    29.92F
$$
MIZ016>042-251000-
NORTHERN LOWER MICHIGAN

CITY           SKY/WX    TMP DP  RH WIND       PRES   REMARKS
ALPENA         MOCLDY    73  68  84 W3        29.82R
BEAVER ISLAND  MOCLDY    68  66  96 W6        29.84R
BELLAIRE       CLOUDY    72  70  94 CALM      29.86S
CADILLAC       CLOUDY    69  67  93 CALM      29.90S
CHARLEVOIX     MOCLDY    70  69  97 SW5       29.88R
FRANKFORT      MOCLDY    68  66  92 CALM      29.88S
GAYLORD        CLOUDY    68  64  87 SW3       29.88R
GRAYLING       CLOUDY    71  68  92 W5        29.89R
HARBOR SPRINGS CLOUDY    69  69  99 CALM      29.84S FOG
HOUGHTON LAKE  CLOUDY    72  69  90 NW8       29.89R
MANISTEE       CLOUDY    70  68  93 CALM      29.88S
OSCODA         CLOUDY    73  73  99 SW6       29.82R FOG
PELLSTON       CLOUDY    67  64  90 CALM      29.84R
ROGERS CITY    CLOUDY    69  67  92 W3        29.83R
TRAVERSE CITY  CLOUDY    73  69  87 SW5       29.85S
$$
MIZ007>008-015-251000-
EASTERN UPPER MICHIGAN

CITY           SKY/WX    TMP DP  RH WIND       PRES   REMARKS
KINROSS        CLEAR     65  64  97 W7        29.81S
MACKINAC ISLAN MOCLDY    68  68 100 SW8       29.82S
NEWBERRY       CLEAR     63  62  97 SW5       29.81F
S. S. MARIE    CLEAR     64  62  93 W3        29.80R
MUNISING         N/A     70  60  70 W8G17     29.82R
$$
MIZ004>006-011>014-085-251000-
CENTRAL UPPER MICHIGAN

CITY           SKY/WX    TMP DP  RH WIND       PRES   REMARKS
MANISTIQUE     CLEAR     67  63  89 W6        29.83R
ESCANABA       CLEAR     64  61  88 W8        29.84S
MENOMINEE        N/A    N/A N/A N/A MISG        N/A
SAWYER-GWINN   CLEAR     63  59  87 W5        29.87R
$$
MIZ001>003-009>011-084-251000-
WESTERN UPPER MICHIGAN

CITY           SKY/WX    TMP DP  RH WIND       PRES   REMARKS
IRON MOUNTAIN  CLEAR     66  60  81 W7        29.88S
HOUGHTON       CLEAR     66  58  75 W13       29.84R
COPPER HARBOR    N/A     70  58  65 N14G24    29.80R
IRONWOOD       CLEAR     63  61  94 W6        29.92R
$$

ABBREVIATIONS USED IN REMARKS
   TC - TEMPERATURE IN CELSIUS
  WCI - WIND CHILL INDEX
   HX - HEAT INDEX
  VSB - VISIBILITY





USA.gov is the U.S. government's official web portal to all federal, state and local government web resources and services.